Location: Wildlife_Club
(35.6000°N, 81.4330°W)
Time: 17:47:26
(UTC-04:00)

Iridium 56 - Visible Passes

Search period start: 28 July 2015 00:00
Search period end: 07 August 2015 00:00
Orbit: 776 x 779 km, 86.4° (Epoch: 28 July)

Date Brightness Start Highest point End Pass type
(mag) Time Alt. Az. Time Alt. Az. Time Alt. Az.
28 Jul 7.1 00:37:28 28° WNW 00:37:28 28° WNW 00:41:08 10° NNW visible
28 Jul 7.5 22:23:26 13° ENE 22:23:26 13° ENE 22:25:14 10° NE visible
29 Jul 6.3 00:03:54 49° NW 00:03:54 49° NW 00:08:05 10° N visible
29 Jul 5.8 23:30:20 58° NNE 23:30:20 58° NNE 23:34:37 10° N visible
30 Jul 8.2 01:10:47 10° WNW 01:10:51 10° WNW 01:11:29 10° WNW visible
30 Jul 6.3 22:56:45 36° ENE 22:56:45 36° ENE 23:00:47 10° NNE visible
31 Jul 7.5 00:37:12 20° WNW 00:37:12 20° WNW 00:40:39 10° NNW visible
31 Jul 7.0 22:23:09 20° ENE 22:23:09 20° ENE 22:26:25 10° NE visible
01 Aug 6.7 00:03:37 37° WNW 00:03:37 37° WNW 00:07:56 10° NNW visible
01 Aug 5.7 23:30:00 68° NW 23:30:00 68° NW 23:34:43 10° N visible
02 Aug 5.7 22:56:23 55° ENE 22:56:23 55° ENE 23:01:06 10° N visible
03 Aug 7.9 00:36:50 14° W 00:37:13 14° WNW 00:39:42 10° NW visible
03 Aug 6.5 22:22:44 29° E 22:22:44 29° E 22:27:05 10° NNE visible
04 Aug 7.2 00:03:12 26° W 00:03:19 26° W 00:07:37 10° NNW visible
04 Aug 7.2 21:49:05 15° E 21:49:16 15° E 21:52:21 10° NE visible
04 Aug 6.1 23:29:33 50° W 23:29:36 50° W 23:34:40 10° N visible
05 Aug 5.3 22:55:52 82° SE 22:56:03 84° E 23:01:17 10° N visible
06 Aug 5.9 22:22:11 42° E 22:22:35 43° E 22:27:31 10° NNE visible
